Home   Weather   Sultanpur   Past weeks

Flag for India Past Weather in Sultanpur, Uttar Pradesh, India — Yesterday and Last 2 Weeks

Now
84 °F

Passing clouds.


Feels Like: 84 °F
Forecast: 83 / 103 °F
Wind: No wind

Location: Lucknow / Amausi

Current Time: Apr 25, 2017 at 5:03:23 am

Latest Report: Apr 25, 2017 at 4:00 am


Visibility: 2 mi

Pressure: 29.59 "Hg

Humidity: 45%

Dew Point: 61 °F

Location of SultanpurLocation

Past Weather in Sultanpur — Graph

°F

Sultanpur Temperature Yesterday

Maximum temperature yesterday: 106 °F (at 3:30 pm)
Minimum temperature yesterday: 75 °F (at 4:00 am)
Average temperature yesterday: 92 °F

High & Low Weather Summary for the Past Weeks

 TemperatureHumidityPressure
High109 °F (Apr 15, 4:00 pm)89% (Apr 20, 5:00 am)29.80 "Hg (Apr 20, 5:00 am)
Low63 °F (Apr 10, 6:00 am)10% (Apr 10, 2:30 pm)29.47 "Hg (Apr 20, 4:00 pm)
Average90 °F43%29.63 "Hg
* Reported Apr 10 4:00 am — Apr 25 4:00 am, Sultanpur, Weather by CustomWeather, © 2017

Note: Actual official high and low records may vary slightly from our data, if they occured in-between our weather recording intervals... More about our weather records

Advertising

Sultanpur Weather History for the Previous 24 Hours

Scroll right to see more
 ConditionsComfort  
Time TempWeatherWind HumidityBarometerVisibility
4:00 am
Tue, Apr 25
84 °FPassing clouds.No wind45%29.59 "Hg2 mi
3:00 am86 °FPassing clouds.No wind40%29.59 "Hg2 mi
2:00 am86 °FPassing clouds.12 mph40%29.62 "Hg2 mi
1:00 am88 °FPassing clouds.No wind43%29.59 "Hg2 mi
11:00 pm
Mon, Apr 24
90 °FPassing clouds.No wind46%29.62 "Hg2 mi
10:00 pm90 °FPassing clouds.No wind46%29.62 "Hg2 mi
9:00 pm93 °FPassing clouds.No wind44%29.62 "Hg2 mi
7:30 pm99 °FPassing clouds.No wind37%29.56 "Hg2 mi
7:00 pm100 °FScattered clouds.2 mph29%29.56 "Hg2 mi
6:30 pm100 °FScattered clouds.2 mph29%29.56 "Hg2 mi
6:00 pm102 °FScattered clouds.3 mph27%29.56 "Hg2 mi
5:30 pm104 °FDuststorm.3 mph24%29.56 "Hg2 mi
5:00 pm104 °FDuststorm.3 mph24%29.56 "Hg2 mi
4:30 pm106 °FDuststorm.3 mph25%29.53 "Hg2 mi
4:00 pm106 °FDuststorm.3 mph23%29.56 "Hg2 mi
3:30 pm106 °FHaze.3 mph28%29.56 "Hg2 mi
3:00 pm104 °FHaze.3 mph29%29.59 "Hg2 mi
2:30 pm104 °FHaze.3 mph29%29.59 "Hg2 mi
2:00 pm102 °FHaze.3 mph33%29.59 "Hg2 mi
1:30 pm102 °FHaze.3 mph31%29.62 "Hg2 mi
1:00 pm100 °FHaze.2 mph33%29.62 "Hg2 mi
12:30 pm100 °FHaze.2 mph33%29.65 "Hg2 mi
12:00 pm100 °FHaze.3 mph33%29.65 "Hg2 mi
11:30 am97 °FHaze.3 mph37%29.65 "Hg2 mi
11:00 am97 °FHaze.3 mph34%29.65 "Hg1 mi
10:00 am91 °FHaze.3 mph44%29.68 "Hg1 mi
9:30 am90 °FHaze.3 mph46%29.68 "Hg1 mi
9:00 am88 °FHaze.2 mph46%29.68 "Hg1 mi
8:00 am82 °FHaze.No wind55%29.68 "Hg1 mi
7:30 am81 °FHaze.No wind58%29.65 "Hg1 mi
7:00 am79 °FHaze.2 mph61%29.65 "Hg1 mi
6:30 am77 °FHaze.2 mph65%29.65 "Hg1 mi
5:30 am75 °FPassing clouds.2 mph65%29.59 "Hg1 mi
5:00 am75 °FPassing clouds.2 mph65%29.59 "Hg1 mi
Weather by CustomWeather, © 2017

See weather overviewHow to use our weather pages